Location: Hilton Head Island
(32.2163°N, 80.7526°W)
Time: 14:34:06
(UTC-04:00)

Vanguard 1 - Pass Details

Date: 19 February 2026
Orbit: 653 x 3818 km, 34.2° (Epoch: 9 March)

Event Time Altitude Azimuth Distance (km) Brightness Sun altitude
Rises 19:37:51 0° 285° (WNW) 5,943 15.5 -18.7°
Reaches altitude 10° 19:41:06 10° 285° (WNW) 5,267 14.9 -19.4°
Maximum altitude 19:58:39 80° 202° (SSW) 3,578 12.8 -23.1°
Enters shadow 20:15:25 26° 121° (ESE) 5,595 13.3 -26.6°
Drops below altitude 10° 20:22:26 10° 119° (ESE) 6,788 - -28.1°
Sets 20:27:21 0° 119° (ESE) 7,640 - -29.1°
